Location: Bryzozowice
(50.3667°N, 18.9667°E)
Time: 16:32:47
(UTC+00:00)

Cosmos 2154 Rocket - Pass Details

Date: 24 January 2020
Orbit: 965 x 997 km, 82.9° (Epoch: 20 February)

Event Time Altitude Azimuth Distance (km) Brightness Sun altitude
Rises 16:20:17 0° 188° (S) 3,680 7.4 -9.2°
Reaches altitude 10° 16:22:48 10° 189° (S) 2,731 6.7 -9.6°
Maximum altitude 16:29:04 87° 276° (W) 986 4.1 -10.5°
Drops below altitude 10° 16:35:21 10° 9° (N) 2,728 6.1 -11.5°
Sets 16:37:52 0° 10° (N) 3,676 6.8 -11.9°
